Blytheville, AR

4:22 AM CST on December 06, 2016 (GMT -0600)
Blytheville Municipal

Weather History for KHKA - October, 2012

Change the Weather History Date:

Sunday, October 7, 2012

  Actual Average Record
Temperature  
Mean Temperature 49 °F -  
Max Temperature 57 °F 74 °F 93 °F (2016)
Min Temperature 41 °F 53 °F 31 °F (1935)
Degree Days  
Heating Degree Days 16    
Moisture  
Dew Point 38 °F    
Average Humidity 66    
Maximum Humidity 93    
Minimum Humidity 41    
Precipitation  
Precipitation 0.00 in - - ()
Sea Level Pressure  
Sea Level Pressure 30.23 in    
Wind  
Wind Speed 8 mph (NNE)    
Max Wind Speed 12 mph    
Max Gust Speed 21 mph    
Visibility 10 miles    
Events      
Averages and records for this station are not official NWS values.
T = Trace of Precipitation, MM = Missing Value Source: NWS Daily Summary

Daily Weather History Graph

Daily Weather History Graph

Search for Another Location

Airport or City:

Trip Planner

Search our weather history database for the weather conditions in past years. The results will help you decide how hot, cold, wet, or windy it might be!

Date:

Astronomy

Oct. 07, 2012 Rise Set
Actual Time 6:59 AM CDT 6:33 PM CDT
Civil Twilight 6:34 AM CDT 6:59 PM CDT
Nautical Twilight 6:04 AM CDT 7:28 PM CDT
Astronomical Twilight 5:34 AM CDT 7:58 PM CDT
Moon 11:52 PM CDT (10/7) 1:29 PM CDT (10/7)
Length of Visible Light 12h 25m
Length of Day
11h 34m
Waning Gibbous, 56% of the Moon is Illuminated
Oct 7
Waning Gibbous
Oct 8
Last Quarter
Oct 15
New
Oct 21
First Quarter
Oct 29
Full

Hourly Weather History & Observations

Time (CDT) Temp. Windchill Dew Point Humidity Pressure Visibility Wind Dir Wind Speed Gust Speed Precip Events Conditions
12:53 AM 46.9 °F - 39.0 °F 74% 30.22 in 10.0 mi North 10.4 mph - N/A   Overcast
1:53 AM 46.0 °F 41.9 °F 39.0 °F 76% 30.22 in 10.0 mi NNE 8.1 mph - N/A   Overcast
2:53 AM 46.0 °F 40.6 °F 37.9 °F 73% 30.22 in 10.0 mi North 11.5 mph - N/A   Overcast
3:53 AM 45.0 °F 41.8 °F 37.9 °F 76% 30.23 in 10.0 mi North 5.8 mph - N/A   Overcast
4:53 AM 41.0 °F 38.0 °F 39.0 °F 93% 30.24 in 10.0 mi NNW 4.6 mph - N/A   Mostly Cloudy
5:53 AM 44.1 °F 39.5 °F 39.9 °F 85% 30.26 in 10.0 mi NNW 8.1 mph - N/A   Overcast
6:53 AM 44.1 °F 38.1 °F 39.0 °F 82% 30.27 in 10.0 mi North 11.5 mph - N/A   Overcast
7:53 AM 45.0 °F 41.2 °F 39.0 °F 80% 30.27 in 10.0 mi North 6.9 mph - N/A   Overcast
8:53 AM 46.9 °F - 37.9 °F 71% 30.27 in 10.0 mi North 10.4 mph - N/A   Clear
9:53 AM 48.0 °F - 34.0 °F 58% 30.28 in 10.0 mi NNE 9.2 mph - N/A   Clear
10:53 AM 52.0 °F - 34.0 °F 50% 30.28 in 10.0 mi NE 6.9 mph - N/A   Clear
11:53 AM 54.0 °F - 34.0 °F 47% 30.27 in 10.0 mi NE 6.9 mph - N/A   Clear
12:53 PM 54.0 °F - 33.1 °F 45% 30.26 in 10.0 mi NNE 10.4 mph - N/A   Clear
1:53 PM 55.9 °F - 34.0 °F 44% 30.24 in 10.0 mi NNE 8.1 mph 20.7 mph N/A   Clear
2:53 PM 57.9 °F - 35.1 °F 42% 30.21 in 10.0 mi NNW 8.1 mph - N/A   Clear
3:53 PM 57.9 °F - 34.0 °F 41% 30.21 in 10.0 mi Variable 3.5 mph - N/A   Clear
4:53 PM 55.9 °F - 34.0 °F 44% 30.19 in 10.0 mi NE 5.8 mph - N/A   Clear
5:53 PM 54.0 °F - 35.1 °F 49% 30.19 in 10.0 mi North 4.6 mph - N/A   Clear
6:53 PM 53.1 °F - 39.9 °F 61% 30.18 in 10.0 mi NE 3.5 mph - N/A   Clear
7:53 PM 50.0 °F - 43.0 °F 77% 30.18 in 10.0 mi NNE 4.6 mph - N/A   Clear
8:53 PM 50.0 °F - 44.1 °F 80% 30.20 in 10.0 mi NNE 3.5 mph - N/A   Clear
9:53 PM 50.0 °F - 44.1 °F 80% 30.20 in 10.0 mi Calm Calm - N/A   Partly Cloudy
10:53 PM 50.0 °F - 45.0 °F 83% 30.22 in 10.0 mi Calm Calm - N/A   Clear
11:53 PM 50.0 °F - 42.1 °F 74% 30.20 in 10.0 mi Calm Calm - N/A   Mostly Cloudy